,,,PA_Meas_PMT16A,,PR_Meas_QMR101_102,,RH_Meas_QMH101,,SR_Meas_QMS101,,TA_Meas_QMH101,,GenWind,,GenWind,
date,time,status,PA,status,PR,status,RH,status,SR,status,TA,status,DirAvg,status,SpdAvg,
2008-12-20, 00:00:04,VALID,1003.2,VALID,0,VALID,88.3958,VALID,0,VALID,25.4772,VALID,350,VALID,0.592969,
2008-12-20, 00:01:04,VALID,1003.18,VALID,0,VALID,88.4798,VALID,0,VALID,25.4558,VALID,354,VALID,0.577344,
2008-12-20, 00:02:04,VALID,1003.15,VALID,0,VALID,88.5789,VALID,0,VALID,25.4363,VALID,356,VALID,0.540234,
2008-12-20, 00:03:04,VALID,1003.14,VALID,0,VALID,88.434,VALID,0,VALID,25.4169,VALID,341,VALID,0.494531,
2008-12-20, 00:04:04,VALID,1003.13,VALID,0,VALID,88.3501,VALID,0,VALID,25.4383,VALID,348,VALID,0.764453,
2008-12-20, 00:05:04,VALID,1003.15,VALID,0,VALID,88.556,VALID,0,VALID,25.3974,VALID,360,VALID,0.490625,
2008-12-20, 00:06:04,VALID,1003.1,VALID,0,VALID,88.1746,VALID,0,VALID,25.4188,VALID,344,VALID,0.784375,
2008-12-20, 00:07:04,VALID,1003.11,VALID,0,VALID,88.2356,VALID,0,VALID,25.3974,VALID,349,VALID,0.536328,
2008-12-20, 00:08:04,VALID,1003.09,VALID,0,VALID,88.0754,VALID,0,VALID,25.3974,VALID,348,VALID,0.594531,
2008-12-20, 00:09:04,VALID,1003.1,VALID,0,VALID,88.1288,VALID,0,VALID,25.3565,VALID,348,VALID,0.250391,
2008-12-20, 00:10:04,VALID,1003.08,VALID,0,VALID,88.1136,VALID,0,VALID,25.3974,VALID,348,VALID,0.015625,
2008-12-20, 00:11:04,VALID,1003.12,VALID,0,VALID,88.0754,VALID,0,VALID,25.3974,VALID,348,VALID,0.00546875,
2008-12-20, 00:12:04,VALID,1003.11,VALID,0,VALID,88.0144,VALID,0,VALID,25.3779,VALID,348,VALID,0,
2008-12-20, 00:13:04,VALID,1003.1,VALID,0,VALID,88.0602,VALID,0,VALID,25.3779,VALID,348,VALID,0,
2008-12-20, 00:14:04,VALID,1003.1,VALID,0,VALID,88.0449,VALID,0,VALID,25.339,VALID,348,VALID,0,
2008-12-20, 00:15:04,VALID,1003.12,VALID,0,VALID,88.0296,VALID,0,VALID,25.3584,VALID,357,VALID,0.464844,
2008-12-20, 00:16:04,VALID,1003.1,VALID,0,VALID,88.0678,VALID,0,VALID,25.339,VALID,346,VALID,0.403125,
2008-12-20, 00:17:04,VALID,1003.09,VALID,0,VALID,88.1059,VALID,0,VALID,25.339,VALID,345,VALID,0.61875,
2008-12-20, 00:18:04,VALID,1003.09,VALID,0,VALID,88.2814,VALID,0,VALID,25.3195,VALID,356,VALID,0.451953,
2008-12-20, 00:19:04,VALID,1003.05,VALID,0,VALID,88.2814,VALID,0,VALID,25.2981,VALID,356,VALID,0.466797,
2008-12-20, 00:20:04,VALID,1003.03,VALID,0,VALID,88.1212,VALID,0.100563,VALID,25.3,VALID,348,VALID,0.633203,
2008-12-20, 00:21:04,VALID,1003.03,VALID,0,VALID,88.0373,VALID,0,VALID,25.3,VALID,346,VALID,0.524609,
2008-12-20, 00:22:04,VALID,1003.01,VALID,0,VALID,87.9305,VALID,0,VALID,25.2981,VALID,349,VALID,0.613281,
2008-12-20, 00:23:04,VALID,1002.99,VALID,0,VALID,87.8237,VALID,0,VALID,25.3195,VALID,345,VALID,0.559375,
2008-12-20, 00:24:04,VALID,1002.98,VALID,0,VALID,87.7245,VALID,0.100563,VALID,25.3176,VALID,342,VALID,0.579297,
2008-12-20, 00:25:04,VALID,1002.95,VALID,0,VALID,87.3812,VALID,0,VALID,25.3779,VALID,338,VALID,0.875,
2008-12-20, 00:26:04,VALID,1002.94,VALID,0,VALID,87.3049,VALID,0,VALID,25.3974,VALID,353,VALID,0.671875,
2008-12-20, 00:27:04,VALID,1002.91,VALID,0,VALID,87.0379,VALID,0,VALID,25.4363,VALID,357,VALID,0.803125,
2008-12-20, 00:28:04,VALID,1002.87,VALID,0,VALID,86.481,VALID,0,VALID,25.4558,VALID,358,VALID,1.19961,
2008-12-20, 00:29:04,VALID,1002.87,VALID,0,VALID,86.275,VALID,0,VALID,25.5337,VALID,333,VALID,0.496875,
2008-12-20, 00:30:04,VALID,1002.84,VALID,0,VALID,85.9165,VALID,0.100563,VALID,25.5727,VALID,331,VALID,0.677734,
2008-12-20, 00:31:04,VALID,1002.82,VALID,0,VALID,85.5732,VALID,0,VALID,25.6116,VALID,358,VALID,0.713672,
2008-12-20, 00:32:04,VALID,1002.81,VALID,0,VALID,85.3595,VALID,0,VALID,25.6486,VALID,351,VALID,1.45156,
2008-12-20, 00:33:04,VALID,1002.83,VALID,0,VALID,85.3748,VALID,0,VALID,25.709,VALID,333,VALID,0.636328,
2008-12-20, 00:34:04,VALID,1002.81,VALID,0,VALID,85.2909,VALID,0,VALID,25.709,VALID,350,VALID,0.711719,
2008-12-20, 00:35:04,VALID,1002.82,VALID,0,VALID,85.3824,VALID,0,VALID,25.7285,VALID,354,VALID,1.28984,
2008-12-20, 00:36:04,VALID,1002.81,VALID,0,VALID,85.3824,VALID,0.100563,VALID,25.7285,VALID,345,VALID,0.504297,
2008-12-20, 00:37:04,VALID,1002.8,VALID,0,VALID,85.3748,VALID,0.100563,VALID,25.7285,VALID,335,VALID,0.837109,
2008-12-20, 00:38:04,VALID,1002.78,VALID,0,VALID,85.5808,VALID,0.100563,VALID,25.7285,VALID,347,VALID,1.14023,
2008-12-20, 00:39:04,VALID,1002.78,VALID,0,VALID,85.5503,VALID,0.100563,VALID,25.7071,VALID,356,VALID,0.979688,
2008-12-20, 00:40:04,VALID,1002.75,VALID,0,VALID,85.6113,VALID,0,VALID,25.7071,VALID,349,VALID,0.617969,
2008-12-20, 00:41:04,VALID,1002.73,VALID,0,VALID,85.5503,VALID,0,VALID,25.709,VALID,346,VALID,1.00547,
2008-12-20, 00:42:04,VALID,1002.71,VALID,0,VALID,85.6952,VALID,0,VALID,25.709,VALID,344,VALID,0.887109,
2008-12-20, 00:43:04,VALID,1002.65,VALID,0,VALID,85.7868,VALID,0,VALID,25.6895,VALID,302,VALID,0.646094,
2008-12-20, 00:44:04,VALID,1002.63,VALID,0,VALID,85.8783,VALID,0,VALID,25.67,VALID,335,VALID,0.730469,
2008-12-20, 00:45:04,VALID,1002.57,VALID,0,VALID,85.741,VALID,0,VALID,25.67,VALID,352,VALID,0.725781,
2008-12-20, 00:46:04,VALID,1002.59,VALID,0,VALID,85.8554,VALID,0.100563,VALID,25.6895,VALID,4,VALID,0.426953,
2008-12-20, 00:47:04,VALID,1002.55,VALID,0,VALID,85.7562,VALID,0,VALID,25.709,VALID,352,VALID,1.12305,
2008-12-20, 00:48:04,VALID,1002.55,VALID,0,VALID,85.6113,VALID,0,VALID,25.7071,VALID,360,VALID,0.866797,
2008-12-20, 00:49:04,VALID,1002.58,VALID,0,VALID,85.6189,VALID,0,VALID,25.7285,VALID,360,VALID,1.14141,
2008-12-20, 00:50:04,VALID,1002.58,VALID,0,VALID,85.6342,VALID,0,VALID,25.7285,VALID,357,VALID,0.534766,
2008-12-20, 00:51:04,VALID,1002.6,VALID,0,VALID,85.6723,VALID,0.100563,VALID,25.748,VALID,357,VALID,0.701953,
2008-12-20, 00:52:04,VALID,1002.59,VALID,0,VALID,85.3748,VALID,0,VALID,25.7285,VALID,3,VALID,1.26875,
2008-12-20, 00:53:04,VALID,1002.59,VALID,0,VALID,85.0239,VALID,0,VALID,25.7285,VALID,27,VALID,1.30859,
2008-12-20, 00:54:04,VALID,1002.62,VALID,0,VALID,84.9171,VALID,0,VALID,25.7869,VALID,13,VALID,0.717969,
2008-12-20, 00:55:04,VALID,1002.58,VALID,0,VALID,85.1154,VALID,0,VALID,25.7869,VALID,352,VALID,0.694922,
2008-12-20, 00:56:04,VALID,1002.62,VALID,0,VALID,85.0086,VALID,0,VALID,25.7869,VALID,11,VALID,0.948438,
2008-12-20, 00:57:04,VALID,1002.62,VALID,0,VALID,85.1383,VALID,0,VALID,25.7655,VALID,17,VALID,0.439844,
2008-12-20, 00:58:04,VALID,1002.61,VALID,0,VALID,85.0391,VALID,0,VALID,25.7869,VALID,350,VALID,1.10625,
2008-12-20, 00:59:04,VALID,1002.64,VALID,0,VALID,84.9552,VALID,0.100563,VALID,25.7694,VALID,354,VALID,0.685156,
2008-12-20, 01:00:04,VALID,1002.65,VALID,0,VALID,85.2451,VALID,0,VALID,25.748,VALID,15,VALID,0.745313,
2008-12-20, 01:01:04,VALID,1002.63,VALID,0,VALID,85.3977,VALID,0,VALID,25.748,VALID,360,VALID,0.573438,
2008-12-20, 01:02:04,VALID,1002.64,VALID,0,VALID,85.2299,VALID,0,VALID,25.7285,VALID,348,VALID,0.742578,
2008-12-20, 01:03:04,VALID,1002.63,VALID,0,VALID,85.2604,VALID,0,VALID,25.6895,VALID,349,VALID,0.866797,
2008-12-20, 01:04:04,VALID,1002.63,VALID,0,VALID,85.3672,VALID,0,VALID,25.6895,VALID,353,VALID,0.423828,
2008-12-20, 01:05:04,VALID,1002.61,VALID,0,VALID,85.5655,VALID,0,VALID,25.67,VALID,353,VALID,0.336719,
2008-12-20, 01:06:04,VALID,1002.58,VALID,0,VALID,85.4358,VALID,0,VALID,25.67,VALID,359,VALID,0.735547,
2008-12-20, 01:07:04,VALID,1002.59,VALID,0,VALID,85.5808,VALID,0,VALID,25.67,VALID,354,VALID,0.576172,
2008-12-20, 01:08:04,VALID,1002.57,VALID,0,VALID,85.4129,VALID,0.100563,VALID,25.6506,VALID,331,VALID,0.311719,
2008-12-20, 01:09:04,VALID,1002.55,VALID,0,VALID,85.2756,VALID,0,VALID,25.6506,VALID,339,VALID,0.497656,
2008-12-20, 01:10:04,VALID,1002.55,VALID,0,VALID,85.0849,VALID,0.100563,VALID,25.6525,VALID,339,VALID,0.513672,
2008-12-20, 01:11:04,VALID,1002.54,VALID,0,VALID,85.0315,VALID,0,VALID,25.6311,VALID,349,VALID,0.747266,
2008-12-20, 01:12:04,VALID,1002.53,VALID,0,VALID,84.8866,VALID,0,VALID,25.6311,VALID,5,VALID,0.6,
2008-12-20, 01:13:04,VALID,1002.49,VALID,0,VALID,84.8408,VALID,0,VALID,25.6311,VALID,353,VALID,0.606641,
2008-12-20, 01:14:04,VALID,1002.45,VALID,0,VALID,84.7416,VALID,0,VALID,25.6311,VALID,349,VALID,0.401172,
2008-12-20, 01:15:04,VALID,1002.4,VALID,0,VALID,84.8255,VALID,0,VALID,25.6311,VALID,349,VALID,0.390625,
2008-12-20, 01:16:04,VALID,1002.37,VALID,0,VALID,84.8789,VALID,0,VALID,25.6116,VALID,353,VALID,0.458984,
2008-12-20, 01:17:04,VALID,1002.32,VALID,0,VALID,84.8866,VALID,0,VALID,25.5921,VALID,348,VALID,0.717188,
2008-12-20, 01:18:04,VALID,1002.31,VALID,0,VALID,85.1078,VALID,0,VALID,25.5921,VALID,346,VALID,0.49375,
2008-12-20, 01:19:04,VALID,1002.28,VALID,0,VALID,85.1765,VALID,0,VALID,25.5727,VALID,336,VALID,0.339844,
2008-12-20, 01:20:04,VALID,1002.27,VALID,0,VALID,85.1307,VALID,0.100563,VALID,25.5941,VALID,353,VALID,0.605078,
2008-12-20, 01:21:04,VALID,1002.32,VALID,0,VALID,85.3214,VALID,0,VALID,25.5532,VALID,345,VALID,0.419922,
2008-12-20, 01:22:04,VALID,1002.35,VALID,0,VALID,85.535,VALID,0,VALID,25.5532,VALID,345,VALID,0.136719,
2008-12-20, 01:23:04,VALID,1002.38,VALID,0,VALID,85.2756,VALID,0,VALID,25.5532,VALID,344,VALID,0.140625,
2008-12-20, 01:24:04,VALID,1002.37,VALID,0,VALID,85.0696,VALID,0,VALID,25.5142,VALID,342,VALID,0.383984,
2008-12-20, 01:25:04,VALID,1002.4,VALID,0,VALID,84.9247,VALID,0,VALID,25.5142,VALID,340,VALID,0.617578,
2008-12-20, 01:26:04,VALID,1002.31,VALID,0,VALID,84.795,VALID,0,VALID,25.5142,VALID,356,VALID,0.383984,
2008-12-20, 01:27:04,VALID,1002.28,VALID,0,VALID,84.8255,VALID,0,VALID,25.5357,VALID,343,VALID,0.187109,
2008-12-20, 01:28:04,VALID,1002.21,VALID,0,VALID,84.4364,VALID,0,VALID,25.5746,VALID,342,VALID,0.629687,
2008-12-20, 01:29:04,VALID,1002.18,VALID,0,VALID,84.3449,VALID,0,VALID,25.5727,VALID,351,VALID,0.750391,
2008-12-20, 01:30:04,VALID,1002.16,VALID,0,VALID,84.3983,VALID,0,VALID,25.5941,VALID,303,VALID,0.619922,
2008-12-20, 01:31:04,VALID,1002.14,VALID,0,VALID,84.5433,VALID,0,VALID,25.5921,VALID,340,VALID,0.936719,
2008-12-20, 01:32:04,VALID,1002.16,VALID,0,VALID,84.2457,VALID,0,VALID,25.6116,VALID,348,VALID,0.920313,
2008-12-20, 01:33:04,VALID,1002.15,VALID,0,VALID,84.1618,VALID,0,VALID,25.6116,VALID,348,VALID,1.12305,
2008-12-20, 01:34:04,VALID,1002.14,VALID,0,VALID,84.116,VALID,0,VALID,25.6311,VALID,355,VALID,1.12344,
2008-12-20, 01:35:04,VALID,1002.1,VALID,0,VALID,84.0474,VALID,0,VALID,25.6311,VALID,346,VALID,0.876172,
2008-12-20, 01:36:04,VALID,1002.09,VALID,0,VALID,84.2305,VALID,0,VALID,25.6506,VALID,314,VALID,0.394141,
2008-12-20, 01:37:04,VALID,1002.08,VALID,0,VALID,84.4136,VALID,0,VALID,25.6506,VALID,315,VALID,0.142578,
2008-12-20, 01:38:04,VALID,1002.06,VALID,0,VALID,84.3983,VALID,0,VALID,25.6311,VALID,297,VALID,0.686328,
2008-12-20, 01:39:04,VALID,1002.02,VALID,0,VALID,84.5738,VALID,0,VALID,25.6506,VALID,291,VALID,0.0851562,
2008-12-20, 01:40:04,VALID,1002.01,VALID,0,VALID,84.6958,VALID,0,VALID,25.6292,VALID,289,VALID,0.182812,
2008-12-20, 01:41:04,VALID,1002.02,VALID,0,VALID,84.2839,VALID,0,VALID,25.6506,VALID,354,VALID,0.780859,
2008-12-20, 01:42:04,VALID,1002.02,VALID,0,VALID,84.4059,VALID,0,VALID,25.67,VALID,322,VALID,0.162109,
2008-12-20, 01:43:04,VALID,1002.03,VALID,0,VALID,84.5661,VALID,0,VALID,25.6506,VALID,323,VALID,0.456641,
2008-12-20, 01:44:04,VALID,1002.04,VALID,0,VALID,84.9552,VALID,0,VALID,25.6311,VALID,334,VALID,0.222266,
2008-12-20, 01:45:04,VALID,1002.04,VALID,0,VALID,84.9781,VALID,0,VALID,25.5902,VALID,358,VALID,0.7,
2008-12-20, 01:46:04,VALID,1002.03,VALID,0,VALID,84.8332,VALID,0,VALID,25.5727,VALID,353,VALID,0.348828,
2008-12-20, 01:47:04,VALID,1002.01,VALID,0,VALID,84.9094,VALID,0,VALID,25.5532,VALID,355,VALID,0.525781,
2008-12-20, 01:48:04,VALID,1002,VALID,0,VALID,84.9628,VALID,0,VALID,25.5142,VALID,334,VALID,0.448438,
2008-12-20, 01:49:04,VALID,1001.98,VALID,0,VALID,85.062,VALID,0,VALID,25.4948,VALID,339,VALID,0.579297,
2008-12-20, 01:50:04,VALID,1001.98,VALID,0,VALID,85.0162,VALID,0,VALID,25.5142,VALID,336,VALID,0.521484,
2008-12-20, 01:51:04,VALID,1001.97,VALID,0,VALID,84.5814,VALID,0,VALID,25.5142,VALID,349,VALID,0.882813,
2008-12-20, 01:52:04,VALID,1001.95,VALID,0,VALID,84.8179,VALID,0,VALID,25.5941,VALID,360,VALID,0.753516,
2008-12-20, 01:53:04,VALID,1001.95,VALID,0,VALID,84.7721,VALID,0,VALID,25.5727,VALID,333,VALID,0.531641,
2008-12-20, 01:54:04,VALID,1001.94,VALID,0,VALID,84.9628,VALID,0,VALID,25.5727,VALID,346,VALID,0.527734,
2008-12-20, 01:55:04,VALID,1001.97,VALID,0,VALID,84.9628,VALID,0,VALID,25.5337,VALID,351,VALID,0.658203,
2008-12-20, 01:56:04,VALID,1001.96,VALID,0,VALID,84.9552,VALID,0,VALID,25.5142,VALID,348,VALID,0.509766,
2008-12-20, 01:57:04,VALID,1001.96,VALID,0,VALID,85.1536,VALID,0,VALID,25.5142,VALID,346,VALID,0.446875,
2008-12-20, 01:58:04,VALID,1001.93,VALID,0,VALID,85.3443,VALID,0,VALID,25.5142,VALID,323,VALID,0.1625,
2008-12-20, 01:59:04,VALID,1001.93,VALID,0,VALID,85.2222,VALID,0,VALID,25.5357,VALID,280,VALID,0.822266,
2008-12-20, 02:00:04,VALID,1001.93,VALID,0,VALID,84.9018,VALID,0,VALID,25.5357,VALID,297,VALID,1.04453,
2008-12-20, 02:01:04,VALID,1001.91,VALID,0,VALID,85.1002,VALID,0,VALID,25.5532,VALID,290,VALID,0.178125,
2008-12-20, 02:02:04,VALID,1001.88,VALID,0,VALID,84.6882,VALID,0,VALID,25.5727,VALID,300,VALID,0.814062,
2008-12-20, 02:03:04,VALID,1001.85,VALID,0,VALID,84.7263,VALID,0,VALID,25.6116,VALID,286,VALID,0.225,
2008-12-20, 02:04:04,VALID,1001.81,VALID,0,VALID,84.9018,VALID,0,VALID,25.6116,VALID,345,VALID,0.065625,
2008-12-20, 02:05:04,VALID,1001.79,VALID,0,VALID,84.8942,VALID,0,VALID,25.6116,VALID,322,VALID,0.09375,
2008-12-20, 02:06:04,VALID,1001.79,VALID,0,VALID,84.8332,VALID,0,VALID,25.6136,VALID,330,VALID,0.584766,
2008-12-20, 02:07:04,VALID,1001.75,VALID,0,VALID,84.8484,VALID,0,VALID,25.5921,VALID,335,VALID,0.250781,
2008-12-20, 02:08:04,VALID,1001.74,VALID,0,VALID,84.7645,VALID,0,VALID,25.5921,VALID,352,VALID,0.587109,
2008-12-20, 02:09:04,VALID,1001.71,VALID,0,VALID,84.8408,VALID,0,VALID,25.5921,VALID,349,VALID,0.787891,
2008-12-20, 02:10:04,VALID,1001.68,VALID,0,VALID,85.0162,VALID,0,VALID,25.5727,VALID,354,VALID,0.209766,
2008-12-20, 02:11:04,VALID,1001.67,VALID,0,VALID,85.1536,VALID,0,VALID,25.5727,VALID,293,VALID,0.365234,
2008-12-20, 02:12:04,VALID,1001.68,VALID,0,VALID,85.3901,VALID,0,VALID,25.5941,VALID,346,VALID,0.143359,
2008-12-20, 02:13:04,VALID,1001.67,VALID,0,VALID,85.268,VALID,0,VALID,25.5337,VALID,322,VALID,0.469922,
2008-12-20, 02:14:04,VALID,1001.71,VALID,0,VALID,85.268,VALID,0,VALID,25.5337,VALID,325,VALID,0.561719,
2008-12-20, 02:15:04,VALID,1001.69,VALID,0,VALID,85.3367,VALID,0,VALID,25.5337,VALID,1,VALID,0.494922,
2008-12-20, 02:16:04,VALID,1001.73,VALID,0,VALID,85.4129,VALID,0.100563,VALID,25.5337,VALID,351,VALID,0.616797,
2008-12-20, 02:17:04,VALID,1001.71,VALID,0,VALID,85.4969,VALID,0,VALID,25.5142,VALID,344,VALID,0.669922,
2008-12-20, 02:18:04,VALID,1001.73,VALID,0,VALID,85.5732,VALID,0,VALID,25.4948,VALID,353,VALID,0.634375,
2008-12-20, 02:19:04,VALID,1001.73,VALID,0,VALID,85.7639,VALID,0.100563,VALID,25.4753,VALID,332,VALID,0.522266,
2008-12-20, 02:20:04,VALID,1001.75,VALID,0,VALID,85.8249,VALID,0,VALID,25.4558,VALID,346,VALID,0.394141,
2008-12-20, 02:21:04,VALID,1001.76,VALID,0,VALID,85.9927,VALID,0,VALID,25.4558,VALID,351,VALID,0.201562,
2008-12-20, 02:22:04,VALID,1001.72,VALID,0,VALID,85.4282,VALID,0.100563,VALID,25.3955,VALID,340,VALID,1.02773,
2008-12-20, 02:23:04,VALID,1001.72,VALID,0,VALID,85.3977,VALID,0,VALID,25.4363,VALID,336,VALID,0.710938,
2008-12-20, 02:24:04,VALID,1001.73,VALID,0,VALID,85.4511,VALID,0.100563,VALID,25.4558,VALID,353,VALID,0.75625,
2008-12-20, 02:25:04,VALID,1001.72,VALID,0,VALID,85.4587,VALID,0.100563,VALID,25.4344,VALID,333,VALID,0.482031,
2008-12-20, 02:26:04,VALID,1001.7,VALID,0,VALID,85.5579,VALID,0,VALID,25.4363,VALID,346,VALID,0.597656,
2008-12-20, 02:27:04,VALID,1001.7,VALID,0,VALID,85.5198,VALID,0.100563,VALID,25.4363,VALID,349,VALID,0.602734,
2008-12-20, 02:28:04,VALID,1001.67,VALID,0,VALID,85.5503,VALID,0,VALID,25.4363,VALID,346,VALID,0.480469,
2008-12-20, 02:29:04,VALID,1001.67,VALID,0,VALID,84.8332,VALID,0.100563,VALID,25.4149,VALID,349,VALID,1.06719,
2008-12-20, 02:30:04,VALID,1001.64,VALID,0,VALID,84.5585,VALID,0,VALID,25.4363,VALID,336,VALID,0.985156,
2008-12-20, 02:31:04,VALID,1001.67,VALID,0,VALID,83.9863,VALID,0,VALID,25.4753,VALID,333,VALID,1.17734,
2008-12-20, 02:32:04,VALID,1001.65,VALID,0,VALID,83.6354,VALID,0,VALID,25.5142,VALID,347,VALID,0.947656,
2008-12-20, 02:33:04,VALID,1001.65,VALID,0,VALID,83.46,VALID,0,VALID,25.5337,VALID,350,VALID,1.14961,
2008-12-20, 02:34:04,VALID,1001.67,VALID,0,VALID,83.5286,VALID,0,VALID,25.5727,VALID,8,VALID,0.601953,
2008-12-20, 02:35:04,VALID,1001.63,VALID,0,VALID,83.582,VALID,0,VALID,25.5727,VALID,349,VALID,0.572266,
2008-12-20, 02:36:04,VALID,1001.65,VALID,0,VALID,83.6583,VALID,0,VALID,25.5727,VALID,336,VALID,0.907031,
2008-12-20, 02:37:04,VALID,1001.68,VALID,0,VALID,83.9101,VALID,0,VALID,25.5532,VALID,352,VALID,0.173438,
2008-12-20, 02:38:04,VALID,1001.67,VALID,0,VALID,83.6354,VALID,0,VALID,25.5727,VALID,346,VALID,0.744531,
2008-12-20, 02:39:04,VALID,1001.69,VALID,0,VALID,83.6049,VALID,0,VALID,25.5532,VALID,341,VALID,0.585547,
2008-12-20, 02:40:04,VALID,1001.69,VALID,0,VALID,83.6659,VALID,0,VALID,25.5318,VALID,320,VALID,0.701953,
2008-12-20, 02:41:04,VALID,1001.71,VALID,0,VALID,83.7956,VALID,0,VALID,25.5746,VALID,349,VALID,0.544531,
2008-12-20, 02:42:04,VALID,1001.75,VALID,0,VALID,83.9711,VALID,0,VALID,25.5357,VALID,347,VALID,0.219922,
2008-12-20, 02:43:04,VALID,1001.73,VALID,0,VALID,84.1237,VALID,0,VALID,25.5142,VALID,352,VALID,0.74375,
2008-12-20, 02:44:04,VALID,1001.74,VALID,0,VALID,84.1618,VALID,0,VALID,25.4948,VALID,284,VALID,0.357422,
2008-12-20, 02:45:04,VALID,1001.76,VALID,0,VALID,84.2,VALID,0,VALID,25.4753,VALID,334,VALID,0.547266,
2008-12-20, 02:46:04,VALID,1001.75,VALID,0,VALID,84.3525,VALID,0.100563,VALID,25.4558,VALID,345,VALID,0.678516,
2008-12-20, 02:47:04,VALID,1001.76,VALID,0,VALID,84.3144,VALID,0,VALID,25.4363,VALID,346,VALID,0.517969,
2008-12-20, 02:48:04,VALID,1001.81,VALID,0,VALID,84.7263,VALID,0,VALID,25.4169,VALID,346,VALID,0.102344,
2008-12-20, 02:49:04,VALID,1001.83,VALID,0,VALID,84.7035,VALID,0,VALID,25.3974,VALID,1,VALID,0.221094,
2008-12-20, 02:50:04,VALID,1001.82,VALID,0,VALID,84.856,VALID,0,VALID,25.3974,VALID,360,VALID,0.383984,
2008-12-20, 02:51:04,VALID,1001.83,VALID,0,VALID,85.1383,VALID,0,VALID,25.3779,VALID,314,VALID,0.109766,
2008-12-20, 02:52:04,VALID,1001.84,VALID,0,VALID,85.2527,VALID,0,VALID,25.3584,VALID,311,VALID,0.270312,
2008-12-20, 02:53:04,VALID,1001.86,VALID,0,VALID,85.2451,VALID,0.100563,VALID,25.3584,VALID,327,VALID,0.0121094,
2008-12-20, 02:54:04,VALID,1001.85,VALID,0,VALID,85.535,VALID,0,VALID,25.339,VALID,329,VALID,0.4125,
2008-12-20, 02:55:04,VALID,1001.87,VALID,0,VALID,85.2985,VALID,0,VALID,25.3,VALID,5,VALID,0.566797,
2008-12-20, 02:56:04,VALID,1001.89,VALID,0,VALID,85.3595,VALID,0.100563,VALID,25.3,VALID,359,VALID,0.498047,
2008-12-20, 02:57:04,VALID,1001.88,VALID,0,VALID,85.4587,VALID,0,VALID,25.2806,VALID,349,VALID,0.729297,
2008-12-20, 02:58:04,VALID,1001.89,VALID,0,VALID,85.7486,VALID,0,VALID,25.2611,VALID,355,VALID,0.530859,
2008-12-20, 02:59:04,VALID,1001.94,VALID,0,VALID,85.8859,VALID,0,VALID,25.2416,VALID,338,VALID,0.578125,
2008-12-20, 03:00:04,VALID,1001.95,VALID,0,VALID,86.2598,VALID,0,VALID,25.2027,VALID,345,VALID,0.613281,
2008-12-20, 03:01:04,VALID,1001.94,VALID,0,VALID,86.4352,VALID,0,VALID,25.1637,VALID,345,VALID,0.261328,
2008-12-20, 03:02:04,VALID,1001.94,VALID,0,VALID,86.6946,VALID,0,VALID,25.1442,VALID,345,VALID,0,
2008-12-20, 03:03:04,VALID,1001.97,VALID,0,VALID,86.9998,VALID,0,VALID,25.1461,VALID,345,VALID,0,
2008-12-20, 03:04:04,VALID,1001.98,VALID,0,VALID,87.2439,VALID,0,VALID,25.1267,VALID,345,VALID,0,
2008-12-20, 03:05:04,VALID,1002,VALID,0,VALID,87.6635,VALID,0,VALID,25.1053,VALID,343,VALID,0,
2008-12-20, 03:06:04,VALID,1002.02,VALID,0,VALID,87.8618,VALID,0,VALID,25.0663,VALID,288,VALID,0.133203,
2008-12-20, 03:07:04,VALID,1002.05,VALID,0,VALID,88.1517,VALID,0,VALID,25.0663,VALID,288,VALID,0.126172,
2008-12-20, 03:08:04,VALID,1002.08,VALID,0,VALID,87.7474,VALID,0.100563,VALID,25.0255,VALID,288,VALID,0.328906,
2008-12-20, 03:09:04,VALID,1002.11,VALID,0,VALID,87.9915,VALID,0,VALID,24.9885,VALID,286,VALID,0.409375,
2008-12-20, 03:10:04,VALID,1002.14,VALID,0,VALID,88.3806,VALID,0,VALID,24.9495,VALID,279,VALID,0.517578,
2008-12-20, 03:11:04,VALID,1002.17,VALID,0,VALID,88.3729,VALID,0,VALID,24.9125,VALID,233,VALID,0.494922,
2008-12-20, 03:12:04,VALID,1002.21,VALID,0,VALID,88.8688,VALID,0,VALID,24.8716,VALID,233,VALID,0.273438,
2008-12-20, 03:13:04,VALID,1002.28,VALID,0,VALID,89.3189,VALID,0,VALID,24.8327,VALID,233,VALID,0.00585938,
2008-12-20, 03:14:04,VALID,1002.43,VALID,0,VALID,89.9903,VALID,0.100563,VALID,24.7937,VALID,220,VALID,0.971094,
2008-12-20, 03:15:04,VALID,1002.48,VALID,0,VALID,90.4633,VALID,0,VALID,24.7761,VALID,197,VALID,0.186719,
2008-12-20, 03:16:04,VALID,1002.48,VALID,0,VALID,90.8523,VALID,0,VALID,24.7159,VALID,103,VALID,0.7375,
2008-12-20, 03:17:04,VALID,1002.51,VALID,0,VALID,90.6464,VALID,0,VALID,24.638,VALID,234,VALID,1.26523,
2008-12-20, 03:18:04,VALID,1002.5,VALID,0,VALID,90.6158,VALID,0,VALID,24.6185,VALID,203,VALID,1.98164,
2008-12-20, 03:19:04,VALID,1002.52,VALID,0,VALID,90.715,VALID,0,VALID,24.5814,VALID,164,VALID,1.44766,
2008-12-20, 03:20:04,VALID,1002.51,VALID,0,VALID,90.9134,VALID,0,VALID,24.5425,VALID,158,VALID,0.85625,
2008-12-20, 03:21:04,VALID,1002.52,VALID,0,VALID,91.0965,VALID,0,VALID,24.4822,VALID,217,VALID,1.1707,
2008-12-20, 03:22:04,VALID,1002.52,VALID,0,VALID,91.0965,VALID,0,VALID,24.4238,VALID,215,VALID,3.94922,
2008-12-20, 03:23:04,VALID,1002.5,VALID,0,VALID,91.3482,VALID,0,VALID,24.4238,VALID,169,VALID,1.78789,
2008-12-20, 03:24:04,VALID,1002.55,VALID,0,VALID,91.2033,VALID,0,VALID,24.3849,VALID,177,VALID,2.27422,
2008-12-20, 03:25:04,VALID,1002.53,VALID,0,VALID,91.249,VALID,0,VALID,24.3459,VALID,169,VALID,1.67305,
2008-12-20, 03:26:04,VALID,1002.57,VALID,0,VALID,91.5237,VALID,0,VALID,24.3459,VALID,153,VALID,1.44062,
2008-12-20, 03:27:04,VALID,1002.58,VALID,0,VALID,91.6915,VALID,0,VALID,24.3459,VALID,79,VALID,0.644922,
2008-12-20, 03:28:04,VALID,1002.53,VALID,0,VALID,91.9509,VALID,0.100563,VALID,24.3459,VALID,166,VALID,1.87227,
2008-12-20, 03:29:04,VALID,1002.57,VALID,0,VALID,92.0043,VALID,0.100563,VALID,24.3673,VALID,167,VALID,0.906641,
2008-12-20, 03:30:04,VALID,1002.61,VALID,0,VALID,91.7602,VALID,0,VALID,24.3052,VALID,213,VALID,0.985156,
2008-12-20, 03:31:04,VALID,1002.61,VALID,0,VALID,91.5542,VALID,0,VALID,24.307,VALID,164,VALID,1.54883,
2008-12-20, 03:32:04,VALID,1002.61,VALID,0,VALID,91.4932,VALID,0,VALID,24.3052,VALID,175,VALID,2.13438,
2008-12-20, 03:33:04,VALID,1002.57,VALID,0,VALID,91.4932,VALID,0,VALID,24.3265,VALID,178,VALID,4.91758,
2008-12-20, 03:34:04,VALID,1002.57,VALID,0,VALID,91.6457,VALID,0.100563,VALID,24.3673,VALID,256,VALID,1.53164,
2008-12-20, 03:35:04,VALID,1002.56,VALID,0,VALID,91.7983,VALID,0.100563,VALID,24.3459,VALID,189,VALID,1.50312,
2008-12-20, 03:36:04,VALID,1002.54,VALID,0,VALID,91.0736,VALID,0,VALID,24.2875,VALID,201,VALID,3.91523,
2008-12-20, 03:37:04,VALID,1002.49,VALID,0,VALID,90.7989,VALID,0,VALID,24.2078,VALID,192,VALID,2.11719,
2008-12-20, 03:38:04,VALID,1002.54,VALID,0,VALID,91.1346,VALID,0.100563,VALID,24.1884,VALID,199,VALID,1.05938,
2008-12-20, 03:39:04,VALID,1002.52,VALID,0,VALID,91.2796,VALID,0,VALID,24.1513,VALID,204,VALID,2.10195,
2008-12-20, 03:40:04,VALID,1002.54,VALID,0,VALID,91.5161,VALID,0,VALID,24.1123,VALID,145,VALID,1.4457,
2008-12-20, 03:41:04,VALID,1002.57,VALID,0,VALID,91.8365,VALID,0,VALID,24.0929,VALID,231,VALID,0.614453,
2008-12-20, 03:42:04,VALID,1002.61,VALID,0.5,VALID,92.2866,VALID,0,VALID,24.0716,VALID,241,VALID,1.47891,
2008-12-20, 03:43:04,VALID,1002.65,VALID,0,VALID,92.8053,VALID,0,VALID,24.1105,VALID,205,VALID,1.52383,